Location: Petruro
(41.0333°N, 14.7833°E)
Time: 08:43:03
(UTC+00:00)

Cosmos 1328 Rocket - Pass Details

Date: 20 June 2021
Orbit: 602 x 626 km, 82.5° (Epoch: 26 July)

Event Time Altitude Azimuth Distance (km) Brightness Sun altitude
Rises 02:26:24 0° 344° (NNW) 2,878 7.4 -10.1°
Reaches altitude 10° 02:28:43 10° 336° (NNW) 1,973 6.4 -9.7°
Maximum altitude 02:32:46 39° 268° (W) 933 4.1 -9.2°
Drops below altitude 10° 02:36:49 10° 200° (SSW) 1,972 5.6 -8.6°
Enters shadow 02:37:30 - 197° (SSW) 2,235 5.9 -8.5°
